Date,TemperatureHighF,TemperatureAvgF,TemperatureLowF,DewpointHighF,DewpointAvgF,DewpointLowF,HumidityHigh,HumidityAvg,HumidityLow,PressureMaxIn,PressureMinIn,WindSpeedMaxMPH,WindSpeedAvgMPH,GustSpeedMaxMPH,PrecipitationSumIn
2013-2-1,66,51,41,26,17,-5,47,30,7,30.36,30.20,9,1,0,0.00
2013-2-2,64,47,34,34,27,12,67,49,26,30.37,30.13,3,0,0,0.00
2013-2-3,67,54,44,31,25,19,55,35,16,30.13,29.97,11,1,0,0.00
2013-2-4,60,47,37,35,30,22,71,53,24,30.15,30.05,1,0,0,0.00
2013-2-5,70,54,42,46,41,34,80,63,41,30.09,29.99,5,1,0,0.00
2013-2-6,76,61,52,53,48,43,78,65,42,30.17,30.03,4,0,0,0.00
2013-2-7,62,58,55,58,53,48,87,82,74,30.15,29.73,11,1,0,0.02
2013-2-8,68,56,48,55,46,43,85,69,46,30.06,29.76,5,1,0,0.00
2013-2-9,68,52,42,45,35,26,76,56,21,30.32,30.06,4,0,0,0.00
2013-2-10,72,57,42,52,45,35,80,67,45,30.34,30.17,4,0,0,0.00
2013-2-11,65,62,60,58,56,52,83,79,73,30.20,30.06,5,0,0,0.00
2013-2-12,63,58,55,56,53,50,86,84,74,30.11,29.86,1,0,0,0.28
2013-2-13,76,65,53,64,32,-100,88,58,19,29.91,29.72,8,1,0,0.27
2013-2-14,54,50,44,43,39,36,77,67,58,30.07,29.89,4,0,0,0.00
2013-2-15,66,51,42,43,38,35,80,64,36,30.11,29.97,4,0,0,0.00
2013-2-16,57,46,38,41,33,10,80,62,30,30.06,29.86,10,1,0,0.00
2013-2-17,57,41,31,19,9,-8,57,32,7,30.32,30.07,7,1,0,0.00
2013-2-18,61,44,32,32,20,9,66,43,15,30.43,30.24,5,0,0,0.00
2013-2-19,62,54,43,52,45,33,82,72,53,30.25,29.97,6,1,0,0.00
2013-2-20,62,49,36,45,30,21,82,53,21,30.17,30.06,3,0,0,0.00
2013-2-21,69,53,40,48,37,20,80,59,16,30.17,30.08,2,0,0,0.00
2013-2-22,63,58,54,57,1,-100,83,51,67,30.12,30.02,4,1,0,0.00
2013-2-23,62,57,50,-100,-100,-100,0,0,100,30.03,29.80,6,0,0,0.01
2013-2-24,74,59,50,52,-27,-100,76,29,38,30.00,29.80,3,0,0,0.00
2013-2-25,57,52,46,49,-68,-100,83,18,77,30.03,29.85,4,0,0,0.01
2013-2-26,68,62,49,47,-77,-100,60,9,56,29.91,29.60,8,2,0,0.07
2013-2-27,60,53,48,47,37,33,67,55,42,29.92,29.75,5,1,0,0.00
2013-2-28,67,55,47,37,30,20,65,42,17,29.92,29.82,9,1,0,0.00